EPWA

Warsaw/Okęcie Frédéric Chopin Airport

Airport
ICAO code
EPWA
IATA Code
WAW
Summary
ICAO Region
EUR
ICAO Territory
Location

Okęcie, Warsaw, Masovia

Serving
Warsaw
Elevation
361 ft
Coordinates
52° 9' 54" N , 20° 58' 6" E
KCC
Metar
Observation
EPWA 062330Z 25003KT 4000 -SN BR SCT002 BKN010 00/00 Q1008 NOSIG
Station
Warszawa-Okecie
Date/Time
2022-12-06 23:30:00
Wind direction
250°
Wind speed
03 kts
Lowest cloud amount
scattered clouds
Temperature
0°C
Dew point
0°C
Humidity
100%
QNH
1008 hPa
Weather condition
n/a

International airport serving capital city of Poland.

Climatology

Humid Continental climate (Köppen climate classification Dfb) - Variable weather patterns and a large seasonal temperature variance. Summers are often warm and humid with frequent thunderstorms and winters can be very cold with frequent snowfall and persistent snow cover.

Runways

Designator Length Width Surface Rops
11/29 2800 50 CON Yes/Yes
15/33 3690 60 CON Yes/Yes

Airport map

Aerial View

Airport accidents

SKYbrary Partners:

Safety knowledge contributed by: